When you browse on this site, cookies collect data to enhance your experience and personalize the content and advertising you see.
Visit our Privacy Policy to learn more. By continuing to use the site, you agree to this use of cookies and data.
  • Em Portugal
  • Lista de países
  • Para 7 dias
  • Temperatura da água
  • Mapas de satélite
  • Mapa do tempo
  • Widgets de tempo
  • user-avatar
    Iniciar Sessão

    Previsão horária em Rovenskaya Sloboda

    Hoje, 24 Abril, Quarta-feira

    Tempo Temperatura Precipitação Vento Pressão Humidade
    00:00 +11°C° 0 mm 1 m/s 759 mmHg 47%
    01:00 +11°C° 0 mm 1 m/s 759 mmHg 48%
    02:00 +10°C° 0 mm 0 m/s 759 mmHg 42%
    03:00 +9°C° 0 mm 0 m/s 759 mmHg 43%
    04:00 +9°C° 0 mm 0 m/s 760 mmHg 44%
    05:00 +9°C° 0 mm 0 m/s 760 mmHg 45%
    06:00 +12°C° 0 mm 1 m/s 760 mmHg 43%
    07:00 +14°C° 0 mm 1 m/s 760 mmHg 40%
    08:00 +16°C° 0 mm 1 m/s 760 mmHg 38%
    09:00 +18°C° 0 mm 2 m/s 760 mmHg 33%
    10:00 +19°C° 0 mm 2 m/s 760 mmHg 29%
    11:00 +21°C° 0 mm 3 m/s 760 mmHg 25%
    12:00 +21°C° 0 mm 3 m/s 759 mmHg 25%
    13:00 +22°C° 0 mm 3 m/s 759 mmHg 25%
    14:00 +22°C° 0 mm 3 m/s 759 mmHg 24%
    15:00 +22°C° 0 mm 3 m/s 759 mmHg 26%
    16:00 +21°C° 0 mm 3 m/s 758 mmHg 28%
    17:00 +21°C° 0 mm 3 m/s 758 mmHg 30%
    18:00 +19°C° 0 mm 2 m/s 758 mmHg 35%
    19:00 +17°C° 0 mm 2 m/s 758 mmHg 40%
    20:00 +15°C° 0 mm 2 m/s 758 mmHg 45%
    21:00 +14°C° 0 mm 2 m/s 758 mmHg 47%
    22:00 +14°C° 0 mm 2 m/s 758 mmHg 48%
    23:00 +13°C° 0 mm 1 m/s 759 mmHg 49%

    Amanhã, 25 Abril, Quinta-feira

    Tempo Temperatura Precipitação Vento Pressão Humidade
    00:00 +12°C° 0 mm 1 m/s 759 mmHg 51%
    01:00 +12°C° 0 mm 1 m/s 759 mmHg 53%
    02:00 +11°C° 0 mm 1 m/s 759 mmHg 54%
    03:00 +11°C° 0 mm 1 m/s 759 mmHg 56%
    04:00 +11°C° 0 mm 1 m/s 759 mmHg 58%
    05:00 +10°C° 0 mm 1 m/s 759 mmHg 59%
    06:00 +12°C° 0 mm 2 m/s 759 mmHg 55%
    07:00 +14°C° 0 mm 2 m/s 759 mmHg 51%
    08:00 +16°C° 0 mm 2 m/s 759 mmHg 46%
    09:00 +18°C° 0 mm 3 m/s 758 mmHg 41%
    10:00 +20°C° 0 mm 4 m/s 758 mmHg 35%
    11:00 +21°C° 0 mm 4 m/s 758 mmHg 30%
    12:00 +22°C° 0 mm 5 m/s 758 mmHg 29%
    13:00 +22°C° 0 mm 5 m/s 757 mmHg 29%
    14:00 +22°C° 0 mm 5 m/s 757 mmHg 28%
    15:00 +22°C° 0 mm 5 m/s 757 mmHg 30%
    16:00 +21°C° 0 mm 4 m/s 756 mmHg 32%
    17:00 +21°C° 0 mm 4 m/s 756 mmHg 34%
    18:00 +19°C° 0 mm 3 m/s 756 mmHg 40%
    19:00 +17°C° 0 mm 3 m/s 756 mmHg 47%
    20:00 +15°C° 0 mm 2 m/s 756 mmHg 53%
    21:00 +14°C° 0 mm 2 m/s 756 mmHg 55%
    22:00 +13°C° 0 mm 2 m/s 756 mmHg 58%
    23:00 +13°C° 0 mm 2 m/s 756 mmHg 60%

    Depois de amanhã, 26 Abril, Sexta-feira

    Tempo Temperatura Precipitação Vento Pressão Humidade
    00:00 +12°C° 0 mm 2 m/s 756 mmHg 62%
    01:00 +12°C° 0 mm 2 m/s 756 mmHg 63%
    02:00 +12°C° 0 mm 2 m/s 755 mmHg 65%
    03:00 +10°C° 0 mm 2 m/s 755 mmHg 67%
    04:00 +10°C° 0 mm 2 m/s 755 mmHg 68%
    05:00 +10°C° 0 mm 2 m/s 755 mmHg 70%
    06:00 +12°C° 0 mm 3 m/s 755 mmHg 64%
    07:00 +14°C° 0 mm 3 m/s 755 mmHg 57%
    08:00 +17°C° 0 mm 4 m/s 755 mmHg 51%
    09:00 +17°C° 0 mm 5 m/s 754 mmHg 46%
    10:00 +20°C° 0 mm 5 m/s 754 mmHg 40%
    11:00 +21°C° 0 mm 6 m/s 754 mmHg 35%
    12:00 +22°C° 0 mm 6 m/s 754 mmHg 33%
    13:00 +22°C° 0 mm 6 m/s 753 mmHg 32%
    14:00 +23°C° 0 mm 6 m/s 753 mmHg 31%
    15:00 +22°C° 0 mm 5 m/s 752 mmHg 32%
    16:00 +22°C° 0 mm 5 m/s 752 mmHg 33%
    17:00 +21°C° 0 mm 4 m/s 752 mmHg 34%
    18:00 +19°C° 0 mm 4 m/s 752 mmHg 39%
    19:00 +17°C° 0 mm 3 m/s 752 mmHg 44%
    20:00 +14°C° 0 mm 3 m/s 752 mmHg 50%
    21:00 +14°C° 0 mm 3 m/s 751 mmHg 50%
    22:00 +13°C° 0 mm 3 m/s 751 mmHg 51%
    23:00 +13°C° 0 mm 4 m/s 751 mmHg 52%

    27 Abril, Sábado

    Tempo Temperatura Precipitação Vento Pressão Humidade
    00:00 +13°C° 0 mm 4 m/s 751 mmHg 54%
    01:00 +12°C° 0 mm 4 m/s 750 mmHg 57%
    02:00 +12°C° 0 mm 3 m/s 750 mmHg 60%
    03:00 +12°C° 0 mm 4 m/s 749 mmHg 63%
    04:00 +11°C° 0 mm 4 m/s 749 mmHg 66%
    05:00 +11°C° 0 mm 4 m/s 749 mmHg 69%
    06:00 +12°C° 0 mm 4 m/s 749 mmHg 67%
    07:00 +13°C° 0 mm 4 m/s 748 mmHg 65%
    08:00 +14°C° 0 mm 5 m/s 748 mmHg 63%
    09:00 +15°C° 0 mm 5 m/s 748 mmHg 61%
    10:00 +16°C° 0 mm 5 m/s 748 mmHg 59%
    11:00 +17°C° 0 mm 5 m/s 747 mmHg 58%
    12:00 +19°C° 0.2 mm 5 m/s 747 mmHg 55%
    13:00 +20°C° 0.2 mm 5 m/s 746 mmHg 53%
    14:00 +22°C° 0.2 mm 5 m/s 746 mmHg 50%
    15:00 +22°C° 0 mm 5 m/s 746 mmHg 51%
    16:00 +23°C° 0 mm 4 m/s 745 mmHg 53%
    17:00 +23°C° 0 mm 4 m/s 745 mmHg 54%
    18:00 +21°C° 1.1 mm 3 m/s 745 mmHg 64%
    19:00 +19°C° 1.1 mm 3 m/s 744 mmHg 75%
    20:00 +17°C° 1.1 mm 3 m/s 744 mmHg 86%
    21:00 +17°C° 0.2 mm 3 m/s 744 mmHg 87%
    22:00 +16°C° 0.2 mm 3 m/s 744 mmHg 88%
    23:00 +16°C° 0.2 mm 3 m/s 744 mmHg 89%

    28 Abril, Domingo

    Tempo Temperatura Precipitação Vento Pressão Humidade
    00:00 +16°C° 0.3 mm 3 m/s 744 mmHg 90%
    01:00 +16°C° 0.3 mm 3 m/s 744 mmHg 91%
    02:00 +16°C° 0.3 mm 3 m/s 744 mmHg 92%
    03:00 +14°C° 0 mm 3 m/s 744 mmHg 93%
    04:00 +15°C° 0 mm 2 m/s 744 mmHg 94%
    05:00 +14°C° 0 mm 2 m/s 744 mmHg 94%
    06:00 +16°C° 0 mm 2 m/s 744 mmHg 89%
    07:00 +17°C° 0 mm 2 m/s 744 mmHg 83%
    08:00 +19°C° 0 mm 2 m/s 745 mmHg 77%
    09:00 +20°C° 0.2 mm 2 m/s 745 mmHg 70%
    10:00 +23°C° 0.2 mm 2 m/s 745 mmHg 63%
    11:00 +25°C° 0.2 mm 3 m/s 745 mmHg 56%
    12:00 +24°C° 1.2 mm 3 m/s 745 mmHg 59%
    13:00 +24°C° 1.2 mm 3 m/s 745 mmHg 61%
    14:00 +22°C° 1.2 mm 3 m/s 745 mmHg 63%
    15:00 +22°C° 0.3 mm 3 m/s 745 mmHg 65%
    16:00 +21°C° 0.3 mm 3 m/s 745 mmHg 67%
    17:00 +21°C° 0.3 mm 3 m/s 745 mmHg 69%
    18:00 +19°C° 0.2 mm 4 m/s 746 mmHg 73%
    19:00 +18°C° 0.2 mm 4 m/s 746 mmHg 78%
    20:00 +15°C° 0.2 mm 5 m/s 747 mmHg 82%
    21:00 +14°C° 0.1 mm 5 m/s 747 mmHg 82%
    22:00 +13°C° 0.1 mm 6 m/s 748 mmHg 82%
    23:00 +10°C° 0.1 mm 6 m/s 748 mmHg 82%

    29 Abril, Segunda-feira

    Tempo Temperatura Precipitação Vento Pressão Humidade
    00:00 +10°C° 0 mm 6 m/s 749 mmHg 81%
    01:00 +9°C° 0 mm 6 m/s 749 mmHg 81%
    02:00 +8°C° 0 mm 5 m/s 749 mmHg 80%
    03:00 +7°C° 0 mm 6 m/s 750 mmHg 78%
    04:00 +7°C° 0 mm 6 m/s 750 mmHg 76%
    05:00 +5°C° 0 mm 6 m/s 751 mmHg 74%
    06:00 +5°C° 0 mm 6 m/s 751 mmHg 70%
    07:00 +7°C° 0 mm 6 m/s 751 mmHg 66%
    08:00 +7°C° 0 mm 6 m/s 752 mmHg 63%
    09:00 +9°C° 0 mm 7 m/s 752 mmHg 58%
    10:00 +10°C° 0 mm 7 m/s 752 mmHg 54%
    11:00 +11°C° 0 mm 7 m/s 752 mmHg 50%
    12:00 +11°C° 0 mm 6 m/s 752 mmHg 48%
    13:00 +13°C° 0 mm 6 m/s 752 mmHg 47%
    14:00 +13°C° 0 mm 6 m/s 752 mmHg 45%
    15:00 +13°C° 0 mm 6 m/s 752 mmHg 46%
    16:00 +13°C° 0 mm 6 m/s 753 mmHg 47%
    17:00 +13°C° 0 mm 6 m/s 753 mmHg 49%
    18:00 +10°C° 0 mm 5 m/s 753 mmHg 52%
    19:00 +9°C° 0 mm 5 m/s 753 mmHg 56%
    20:00 +7°C° 0 mm 4 m/s 754 mmHg 60%
    21:00 +7°C° 0 mm 4 m/s 754 mmHg 60%
    22:00 +6°C° 0 mm 4 m/s 754 mmHg 60%
    23:00 +6°C° 0 mm 4 m/s 755 mmHg 60%
    Mostrar mais